EZS82EN LSGG-LICJ

Flight info

Callsign EZS82EN
Flight time 1h 33m
Altitude 37000
Route MEDAM DCT NITAM DCT MOGBO DCT BAKRO DCT RONAB DCT GIANO
Aircraft A320/M-SDE2E3FGHIJ1RWXYZ/LB1

Departure

Time 2026-05-05 08:50
Airport Geneva International Airport (LSGG)

Arrival

Time 2026-05-05 10:24
Airport Falcone–Borsellino Airport (LICJ)
Time Latitude Longitude Altitude Speed Heading
2026-05-05 08:32 46.23032 6.10571 1393 ft 0 kts 135°
2026-05-05 08:34 46.23032 6.10570 1393 ft 0 kts 135°
2026-05-05 08:41 46.23046 6.10549 1404 ft 4 kts 123°
2026-05-05 08:41 46.23056 6.10515 1407 ft 4 kts 88°
2026-05-05 08:41 46.23050 6.10488 1402 ft 1 kts 45°
2026-05-05 08:41 46.23047 6.10484 1393 ft 0 kts 45°
2026-05-05 08:45 46.23073 6.10478 1404 ft 9 kts 324°
2026-05-05 08:45 46.23136 6.10389 1393 ft 14 kts 316°
2026-05-05 08:45 46.23213 6.10368 1395 ft 12 kts 38°
2026-05-05 08:45 46.23281 6.10469 1392 ft 18 kts 45°
2026-05-05 08:46 46.23386 6.10619 1399 ft 24 kts 41°
2026-05-05 08:46 46.23508 6.10790 1387 ft 25 kts 45°
2026-05-05 08:46 46.23632 6.10972 1388 ft 26 kts 45°
2026-05-05 08:46 46.23766 6.11166 1378 ft 27 kts 45°
2026-05-05 08:47 46.23856 6.11300 1376 ft 29 kts 45°
2026-05-05 08:47 46.23992 6.11502 1372 ft 28 kts 45°
2026-05-05 08:47 46.24135 6.11710 1366 ft 27 kts 45°
2026-05-05 08:47 46.24270 6.11910 1361 ft 28 kts 45°
2026-05-05 08:48 46.24400 6.12102 1369 ft 25 kts 45°
2026-05-05 08:48 46.24522 6.12282 1372 ft 25 kts 45°
2026-05-05 08:48 46.24649 6.12467 1366 ft 28 kts 45°
2026-05-05 08:48 46.24782 6.12651 1362 ft 26 kts 35°
2026-05-05 08:49 46.24939 6.12735 1367 ft 18 kts 17°
2026-05-05 08:49 46.25004 6.12689 1370 ft 8 kts 287°
2026-05-05 08:49 46.24992 6.12636 1372 ft 5 kts 225°
2026-05-05 08:49 46.24912 6.12516 1372 ft 38 kts 225°
2026-05-05 08:50 46.24553 6.11991 1371 ft 106 kts 225°
2026-05-05 08:50 46.23908 6.11045 1378 ft 156 kts 225°
2026-05-05 08:50 46.23089 6.09851 1780 ft 169 kts 226°
2026-05-05 08:50 46.22267 6.08634 2498 ft 169 kts 225°
2026-05-05 08:51 46.21403 6.07362 2924 ft 187 kts 224°
2026-05-05 08:51 46.20437 6.05944 3193 ft 211 kts 224°
2026-05-05 08:51 46.19347 6.04350 3548 ft 235 kts 224°
2026-05-05 08:51 46.18143 6.02598 4027 ft 254 kts 224°
2026-05-05 08:52 46.16881 6.00766 4867 ft 259 kts 224°
2026-05-05 08:52 46.15612 5.98910 5801 ft 260 kts 224°
2026-05-05 08:52 46.14361 5.97033 6758 ft 259 kts 224°
2026-05-05 08:52 46.13017 5.95322 7607 ft 259 kts 209°
2026-05-05 08:53 46.11287 5.94583 8379 ft 265 kts 183°
2026-05-05 08:53 46.09457 5.95047 9177 ft 274 kts 159°
2026-05-05 08:53 46.07893 5.96699 9924 ft 289 kts 134°
2026-05-05 08:53 46.06963 5.99315 10670 ft 302 kts 111°
2026-05-05 08:54 46.06363 6.02240 11428 ft 305 kts 112°
2026-05-05 08:54 46.05463 6.04974 12178 ft 301 kts 129°
2026-05-05 08:54 46.04204 6.07388 12981 ft 302 kts 133°
2026-05-05 08:54 46.02861 6.09732 13732 ft 305 kts 135°
2026-05-05 08:55 46.01461 6.12060 14267 ft 314 kts 136°
2026-05-05 08:55 45.99962 6.14493 14410 ft 335 kts 135°
2026-05-05 08:55 45.98395 6.17031 14873 ft 343 kts 135°
2026-05-05 08:55 45.96811 6.19619 15495 ft 347 kts 134°
2026-05-05 08:56 45.95196 6.22208 16132 ft 348 kts 139°
2026-05-05 08:56 45.93337 6.24427 16763 ft 348 kts 146°
2026-05-05 08:56 45.91376 6.26496 17382 ft 351 kts 146°
2026-05-05 08:56 45.89260 6.28218 17965 ft 350 kts 163°
2026-05-05 08:57 45.86882 6.28949 18483 ft 351 kts 172°
2026-05-05 08:57 45.84451 6.29453 19000 ft 354 kts 173°
2026-05-05 08:57 45.81999 6.29947 19547 ft 357 kts 173°
2026-05-05 08:57 45.79526 6.30439 20042 ft 361 kts 174°
2026-05-05 08:58 45.77032 6.30940 20527 ft 364 kts 173°
2026-05-05 08:58 45.74542 6.31664 21022 ft 369 kts 162°
2026-05-05 08:58 45.72267 6.33416 21506 ft 376 kts 144°
2026-05-05 08:58 45.70395 6.36078 21975 ft 382 kts 135°
2026-05-05 08:59 45.68597 6.38899 22464 ft 385 kts 135°
2026-05-05 08:59 45.66793 6.41747 22946 ft 388 kts 135°
2026-05-05 08:59 45.64977 6.44615 23424 ft 391 kts 135°
2026-05-05 08:59 45.63144 6.47498 23840 ft 393 kts 135°
2026-05-05 09:00 45.61298 6.50391 24246 ft 395 kts 135°
2026-05-05 09:00 45.59441 6.53299 24654 ft 397 kts 136°
2026-05-05 09:00 45.57572 6.56222 25024 ft 400 kts 136°
2026-05-05 09:00 45.55688 6.59168 25375 ft 403 kts 136°
2026-05-05 09:01 45.53791 6.62129 25755 ft 405 kts 136°
2026-05-05 09:01 45.51883 6.65098 26090 ft 407 kts 136°
2026-05-05 09:01 45.49963 6.68079 26452 ft 408 kts 136°
2026-05-05 09:01 45.48067 6.71025 26851 ft 409 kts 136°
2026-05-05 09:02 45.46113 6.73977 27253 ft 409 kts 141°
2026-05-05 09:02 45.43913 6.76511 27600 ft 406 kts 148°
2026-05-05 09:02 45.41599 6.78827 27919 ft 407 kts 148°
2026-05-05 09:02 45.39274 6.81155 28271 ft 410 kts 148°
2026-05-05 09:03 45.36938 6.83497 28659 ft 412 kts 149°
2026-05-05 09:03 45.34587 6.85856 28945 ft 415 kts 149°
2026-05-05 09:03 45.32220 6.88228 29262 ft 417 kts 149°
2026-05-05 09:03 45.29839 6.90609 29600 ft 420 kts 149°
2026-05-05 09:04 45.27446 6.93003 29948 ft 422 kts 148°
2026-05-05 09:04 45.25189 6.95713 30172 ft 429 kts 141°
2026-05-05 09:04 45.23047 6.98676 30425 ft 432 kts 140°
2026-05-05 09:04 45.20893 7.01655 30681 ft 434 kts 141°
2026-05-05 09:05 45.18725 7.04643 30950 ft 436 kts 141°
2026-05-05 09:05 45.16544 7.07637 31196 ft 438 kts 141°
2026-05-05 09:05 45.14347 7.10645 31418 ft 441 kts 141°
2026-05-05 09:05 45.12142 7.13667 31679 ft 442 kts 141°
2026-05-05 09:06 45.10066 7.16912 31942 ft 448 kts 133°
2026-05-05 09:06 45.08256 7.20522 32202 ft 450 kts 130°
2026-05-05 09:06 45.06459 7.24155 32506 ft 451 kts 131°
2026-05-05 09:06 45.04659 7.27780 32840 ft 450 kts 131°
2026-05-05 09:07 45.02859 7.31398 33151 ft 450 kts 131°
2026-05-05 09:07 45.01057 7.35016 33448 ft 450 kts 131°
2026-05-05 09:07 44.99253 7.38631 33785 ft 450 kts 132°
2026-05-05 09:07 44.97314 7.42050 34084 ft 442 kts 140°
2026-05-05 09:08 44.95173 7.45156 34328 ft 441 kts 141°
2026-05-05 09:08 44.93020 7.48254 34494 ft 443 kts 141°
2026-05-05 09:08 44.90855 7.51366 34709 ft 445 kts 141°
2026-05-05 09:08 44.88684 7.54487 34947 ft 445 kts 141°
2026-05-05 09:09 44.86523 7.57598 35196 ft 445 kts 141°
2026-05-05 09:09 44.84354 7.60718 35436 ft 445 kts 141°
2026-05-05 09:09 44.82188 7.63829 35636 ft 445 kts 141°
2026-05-05 09:09 44.80021 7.66940 35860 ft 445 kts 141°
2026-05-05 09:10 44.77855 7.70049 36085 ft 445 kts 141°
2026-05-05 09:10 44.75688 7.73151 36294 ft 444 kts 141°
2026-05-05 09:10 44.73521 7.76249 36514 ft 444 kts 141°
2026-05-05 09:10 44.71350 7.79346 36663 ft 445 kts 141°
2026-05-05 09:11 44.69174 7.82445 36839 ft 446 kts 141°
2026-05-05 09:11 44.66996 7.85544 36974 ft 445 kts 141°
2026-05-05 09:11 44.64822 7.88632 36995 ft 444 kts 141°
2026-05-05 09:12 44.60485 7.94798 36994 ft 443 kts 141°
2026-05-05 09:12 44.56149 8.00945 36983 ft 444 kts 141°
2026-05-05 09:13 44.51795 8.07092 36990 ft 444 kts 141°
2026-05-05 09:13 44.47439 8.13231 36998 ft 445 kts 141°
2026-05-05 09:14 44.43078 8.19368 36989 ft 445 kts 141°
2026-05-05 09:14 44.38715 8.25497 36980 ft 444 kts 141°
2026-05-05 09:15 44.34344 8.31626 36994 ft 445 kts 141°
2026-05-05 09:15 44.29971 8.37744 36959 ft 445 kts 141°
2026-05-05 09:16 44.25588 8.43852 36963 ft 445 kts 141°
2026-05-05 09:16 44.21203 8.49957 36954 ft 446 kts 142°
2026-05-05 09:17 44.16809 8.56058 36956 ft 446 kts 142°
2026-05-05 09:17 44.12409 8.62145 36957 ft 446 kts 142°
2026-05-05 09:18 44.08005 8.68231 36933 ft 446 kts 142°
2026-05-05 09:18 44.03599 8.74317 36930 ft 447 kts 141°
2026-05-05 09:19 43.99182 8.80413 36936 ft 448 kts 142°
2026-05-05 09:19 43.94748 8.86502 36941 ft 449 kts 142°
2026-05-05 09:20 43.90301 8.92588 36942 ft 449 kts 142°
2026-05-05 09:20 43.85855 8.98667 36921 ft 449 kts 142°
2026-05-05 09:21 43.81432 9.04707 36934 ft 450 kts 142°
2026-05-05 09:21 43.76966 9.10785 36926 ft 451 kts 142°
2026-05-05 09:22 43.72461 9.16899 36936 ft 451 kts 142°
2026-05-05 09:22 43.68004 9.22930 36942 ft 452 kts 142°
2026-05-05 09:23 43.63507 9.29009 36937 ft 452 kts 142°
2026-05-05 09:23 43.59010 9.35077 36950 ft 452 kts 142°
2026-05-05 09:24 43.54514 9.41147 36962 ft 452 kts 142°
2026-05-05 09:24 43.50007 9.47198 36951 ft 453 kts 142°
2026-05-05 09:25 43.45488 9.53252 36951 ft 454 kts 142°
2026-05-05 09:25 43.40949 9.59314 36952 ft 455 kts 142°
2026-05-05 09:26 43.36396 9.65388 36964 ft 456 kts 142°
2026-05-05 09:26 43.31843 9.71452 36972 ft 456 kts 142°
2026-05-05 09:27 43.27284 9.77514 36985 ft 456 kts 142°
2026-05-05 09:27 43.22720 9.83569 36969 ft 456 kts 141°
2026-05-05 09:28 43.17904 9.89104 36957 ft 446 kts 154°
2026-05-05 09:28 43.12402 9.92842 36972 ft 440 kts 161°
2026-05-05 09:29 43.06848 9.96367 36979 ft 440 kts 161°
2026-05-05 09:29 43.02235 9.99303 36983 ft 440 kts 161°
2026-05-05 09:30 42.96681 10.02837 36966 ft 440 kts 161°
2026-05-05 09:30 42.91132 10.06365 36979 ft 440 kts 161°
2026-05-05 09:31 42.85586 10.09872 36986 ft 439 kts 161°
2026-05-05 09:31 42.80034 10.13361 36987 ft 439 kts 161°
2026-05-05 09:32 42.74495 10.16845 36985 ft 438 kts 161°
2026-05-05 09:32 42.68960 10.20333 36986 ft 438 kts 161°
2026-05-05 09:33 42.63431 10.23810 36963 ft 438 kts 161°
2026-05-05 09:33 42.57892 10.27272 36965 ft 438 kts 161°
2026-05-05 09:34 42.52347 10.30730 36957 ft 439 kts 161°
2026-05-05 09:34 42.46798 10.34192 36969 ft 439 kts 161°
2026-05-05 09:35 42.41244 10.37648 36977 ft 440 kts 161°
2026-05-05 09:35 42.32938 10.42811 36993 ft 440 kts 161°
2026-05-05 09:36 42.27342 10.46281 36999 ft 440 kts 161°
2026-05-05 09:36 42.21776 10.49719 37010 ft 440 kts 161°
2026-05-05 09:37 42.16211 10.53151 37017 ft 440 kts 161°
2026-05-05 09:37 42.10687 10.56562 37012 ft 439 kts 161°
2026-05-05 09:38 42.05127 10.59980 36994 ft 439 kts 161°
2026-05-05 09:38 41.99555 10.63388 36998 ft 440 kts 161°
2026-05-05 09:39 41.93988 10.66795 37000 ft 440 kts 161°
2026-05-05 09:39 41.88418 10.70203 37000 ft 440 kts 161°
2026-05-05 09:40 41.82846 10.73607 37020 ft 440 kts 162°
2026-05-05 09:40 41.77275 10.76993 37033 ft 440 kts 162°
2026-05-05 09:41 41.71708 10.80369 37034 ft 439 kts 162°
2026-05-05 09:41 41.66142 10.83742 37031 ft 438 kts 162°
2026-05-05 09:42 41.60590 10.87105 37047 ft 438 kts 162°
2026-05-05 09:42 41.55047 10.90460 37052 ft 437 kts 162°
2026-05-05 09:43 41.49507 10.93803 37057 ft 437 kts 162°
2026-05-05 09:43 41.43968 10.97140 37046 ft 437 kts 162°
2026-05-05 09:44 41.38429 11.00472 37044 ft 437 kts 162°
2026-05-05 09:44 41.32887 11.03792 37061 ft 436 kts 162°
2026-05-05 09:45 41.27353 11.07092 37058 ft 436 kts 162°
2026-05-05 09:45 41.21825 11.10391 37046 ft 435 kts 163°
2026-05-05 09:46 41.16303 11.13692 37055 ft 435 kts 163°
2026-05-05 09:46 41.10788 11.16978 37052 ft 434 kts 163°
2026-05-05 09:47 41.05278 11.20258 37056 ft 434 kts 163°
2026-05-05 09:47 40.99762 11.23525 37030 ft 434 kts 163°
2026-05-05 09:48 40.94251 11.26776 37043 ft 434 kts 163°
2026-05-05 09:48 40.88737 11.30020 37051 ft 434 kts 163°
2026-05-05 09:49 40.83217 11.33281 37037 ft 436 kts 163°
2026-05-05 09:49 40.77668 11.36561 37015 ft 438 kts 163°
2026-05-05 09:50 40.72060 11.39845 37041 ft 443 kts 163°
2026-05-05 09:50 40.66455 11.43127 37045 ft 444 kts 163°
2026-05-05 09:51 40.60773 11.46462 37048 ft 444 kts 163°
2026-05-05 09:51 40.55124 11.49770 37037 ft 445 kts 163°
2026-05-05 09:52 40.49468 11.53073 37044 ft 445 kts 163°
2026-05-05 09:52 40.43804 11.56364 37050 ft 445 kts 163°
2026-05-05 09:53 40.38135 11.59655 37058 ft 446 kts 163°
2026-05-05 09:53 40.32464 11.62945 37058 ft 446 kts 163°
2026-05-05 09:54 40.26788 11.66225 37048 ft 446 kts 163°
2026-05-05 09:54 40.21104 11.69517 37049 ft 447 kts 162°
2026-05-05 09:55 40.15415 11.72801 37054 ft 447 kts 162°
2026-05-05 09:55 40.09714 11.76077 37063 ft 448 kts 163°
2026-05-05 09:56 40.04013 11.79356 37069 ft 448 kts 162°
2026-05-05 09:56 39.98303 11.82629 37074 ft 448 kts 162°
2026-05-05 09:57 39.92593 11.85900 37077 ft 448 kts 163°
2026-05-05 09:57 39.86875 11.89168 37081 ft 449 kts 163°
2026-05-05 09:58 39.81151 11.92415 37067 ft 449 kts 163°
2026-05-05 09:58 39.75412 11.95634 37073 ft 450 kts 163°
2026-05-05 09:59 39.69703 11.98833 37077 ft 450 kts 163°
2026-05-05 09:59 39.63953 12.02066 37079 ft 450 kts 163°
2026-05-05 10:00 39.58171 12.05308 36361 ft 457 kts 163°
2026-05-05 10:00 39.55261 12.06933 35815 ft 454 kts 163°
2026-05-05 10:00 39.52371 12.08545 35295 ft 451 kts 163°
2026-05-05 10:01 39.49500 12.10148 34754 ft 448 kts 163°
2026-05-05 10:01 39.46640 12.11742 34204 ft 447 kts 163°
2026-05-05 10:01 39.43788 12.13336 33622 ft 444 kts 163°
2026-05-05 10:01 39.40962 12.14912 33096 ft 440 kts 163°
2026-05-05 10:02 39.38161 12.16474 32561 ft 437 kts 163°
2026-05-05 10:02 39.35383 12.18020 32053 ft 433 kts 162°
2026-05-05 10:02 39.32628 12.19552 31541 ft 430 kts 162°
2026-05-05 10:02 39.29894 12.21074 31032 ft 426 kts 162°
2026-05-05 10:03 39.27180 12.22580 30529 ft 423 kts 162°
2026-05-05 10:03 39.24490 12.24068 30028 ft 419 kts 162°
2026-05-05 10:03 39.21825 12.25544 29541 ft 414 kts 162°
2026-05-05 10:03 39.19196 12.26996 29080 ft 408 kts 162°
2026-05-05 10:04 39.16602 12.28426 28625 ft 402 kts 162°
2026-05-05 10:04 39.14046 12.29831 28179 ft 398 kts 162°
2026-05-05 10:04 39.11522 12.31223 27761 ft 391 kts 161°
2026-05-05 10:04 39.09041 12.32598 27319 ft 385 kts 161°
2026-05-05 10:05 39.06592 12.33949 26901 ft 381 kts 161°
2026-05-05 10:05 39.04154 12.35280 26452 ft 380 kts 161°
2026-05-05 10:05 39.01734 12.36608 26012 ft 377 kts 161°
2026-05-05 10:05 38.99329 12.37935 25549 ft 375 kts 161°
2026-05-05 10:06 38.96929 12.39255 25093 ft 373 kts 161°
2026-05-05 10:06 38.94544 12.40564 24623 ft 373 kts 161°
2026-05-05 10:06 38.92164 12.41867 24140 ft 371 kts 161°
2026-05-05 10:06 38.89816 12.43227 23665 ft 372 kts 154°
2026-05-05 10:07 38.87678 12.45137 23130 ft 377 kts 142°
2026-05-05 10:07 38.85899 12.47610 22643 ft 379 kts 129°
2026-05-05 10:07 38.84527 12.50512 22155 ft 381 kts 121°
2026-05-05 10:07 38.83291 12.53506 21662 ft 380 kts 121°
2026-05-05 10:08 38.82060 12.56508 21162 ft 379 kts 121°
2026-05-05 10:08 38.80835 12.59501 20669 ft 379 kts 121°
2026-05-05 10:08 38.79607 12.62486 20166 ft 378 kts 121°
2026-05-05 10:08 38.78376 12.65465 19677 ft 378 kts 121°
2026-05-05 10:09 38.77144 12.68444 19182 ft 379 kts 121°
2026-05-05 10:09 38.75913 12.71424 18741 ft 377 kts 121°
2026-05-05 10:09 38.74687 12.74382 18232 ft 378 kts 121°
2026-05-05 10:09 38.73463 12.77330 17883 ft 372 kts 121°
2026-05-05 10:10 38.72258 12.80237 17446 ft 369 kts 121°
2026-05-05 10:10 38.71055 12.83129 17020 ft 366 kts 121°
2026-05-05 10:10 38.69865 12.85991 16567 ft 363 kts 121°
2026-05-05 10:10 38.68690 12.88816 15849 ft 358 kts 121°
2026-05-05 10:11 38.67529 12.91600 15292 ft 350 kts 121°
2026-05-05 10:11 38.66387 12.94329 14849 ft 348 kts 121°
2026-05-05 10:11 38.65237 12.97070 14388 ft 350 kts 121°
2026-05-05 10:11 38.64087 12.99820 13928 ft 351 kts 121°
2026-05-05 10:12 38.62941 13.02564 13531 ft 348 kts 121°
2026-05-05 10:12 38.61804 13.05289 13110 ft 346 kts 121°
2026-05-05 10:12 38.60676 13.07981 12664 ft 339 kts 121°
2026-05-05 10:12 38.59570 13.10616 12095 ft 332 kts 121°
2026-05-05 10:13 38.58499 13.13172 11670 ft 320 kts 121°
2026-05-05 10:13 38.57806 13.14820 11402 ft 318 kts 121°
2026-05-05 10:13 38.56753 13.17314 10990 ft 319 kts 121°
2026-05-05 10:13 38.55694 13.19821 10556 ft 322 kts 121°
2026-05-05 10:14 38.54559 13.22271 10144 ft 319 kts 130°
2026-05-05 10:14 38.53088 13.24328 9914 ft 308 kts 138°
2026-05-05 10:14 38.51603 13.26237 9568 ft 299 kts 138°
2026-05-05 10:14 38.50160 13.28109 9010 ft 293 kts 137°
2026-05-05 10:15 38.48746 13.29948 8621 ft 283 kts 137°
2026-05-05 10:15 38.47423 13.31677 8455 ft 264 kts 137°
2026-05-05 10:15 38.46156 13.33323 8046 ft 257 kts 137°
2026-05-05 10:15 38.44911 13.34925 7836 ft 252 kts 137°
2026-05-05 10:16 38.43693 13.36488 7713 ft 244 kts 138°
2026-05-05 10:16 38.42517 13.38000 7602 ft 236 kts 137°
2026-05-05 10:16 38.41368 13.39481 7497 ft 234 kts 137°
2026-05-05 10:16 38.40224 13.40954 7398 ft 233 kts 139°
2026-05-05 10:17 38.38918 13.42132 7285 ft 229 kts 158°
2026-05-05 10:17 38.37420 13.42822 6957 ft 229 kts 165°
2026-05-05 10:17 38.35901 13.43446 6661 ft 230 kts 165°
2026-05-05 10:17 38.34372 13.44079 6336 ft 231 kts 163°
2026-05-05 10:18 38.32842 13.44714 6039 ft 231 kts 163°
2026-05-05 10:18 38.31282 13.45132 5732 ft 229 kts 185°
2026-05-05 10:18 38.29817 13.44495 5462 ft 223 kts 219°
2026-05-05 10:18 38.28884 13.42958 5184 ft 221 kts 246°
2026-05-05 10:19 38.28280 13.41161 4915 ft 220 kts 246°
2026-05-05 10:19 38.27683 13.39369 4524 ft 218 kts 247°
2026-05-05 10:19 38.27102 13.37617 4231 ft 211 kts 247°
2026-05-05 10:19 38.26542 13.35917 3961 ft 206 kts 247°
2026-05-05 10:20 38.25996 13.34261 3707 ft 199 kts 247°
2026-05-05 10:20 38.25468 13.32666 3467 ft 192 kts 247°
2026-05-05 10:20 38.24950 13.31107 3245 ft 192 kts 247°
2026-05-05 10:20 38.24426 13.29539 3007 ft 194 kts 247°
2026-05-05 10:21 38.23903 13.27974 2752 ft 196 kts 247°
2026-05-05 10:21 38.23364 13.26369 2487 ft 198 kts 247°
2026-05-05 10:21 38.22821 13.24742 2217 ft 201 kts 248°
2026-05-05 10:21 38.22275 13.23103 1955 ft 200 kts 248°
2026-05-05 10:22 38.21744 13.21512 1707 ft 189 kts 248°
2026-05-05 10:22 38.21248 13.20026 1439 ft 178 kts 248°
2026-05-05 10:22 38.20789 13.18607 1180 ft 170 kts 248°
2026-05-05 10:22 38.20361 13.17281 1007 ft 155 kts 246°
2026-05-05 10:23 38.19944 13.16058 782 ft 144 kts 245°
2026-05-05 10:23 38.19547 13.14929 646 ft 138 kts 245°
2026-05-05 10:23 38.19166 13.13811 427 ft 137 kts 245°
2026-05-05 10:23 38.18789 13.12690 227 ft 139 kts 245°
2026-05-05 10:24 38.18415 13.11577 71 ft 135 kts 246°
2026-05-05 10:24 38.18097 13.10629 63 ft 93 kts 247°
2026-05-05 10:24 38.18004 13.10248 68 ft 27 kts 282°
2026-05-05 10:24 38.18039 13.10027 64 ft 23 kts 277°
2026-05-05 10:25 38.18073 13.09949 65 ft 7 kts 44°
2026-05-05 10:25 38.18094 13.10009 65 ft 7 kts 67°
2026-05-05 10:25 38.18122 13.10092 60 ft 15 kts 68°
2026-05-05 10:25 38.18162 13.10208 61 ft 14 kts 66°
2026-05-05 10:26 38.18197 13.10313 61 ft 12 kts 67°
2026-05-05 10:26 38.18253 13.10367 62 ft 11 kts 347°
2026-05-05 10:26 38.18305 13.10402 57 ft 9 kts 69°
2026-05-05 10:26 38.18332 13.10466 59 ft 8 kts 45°
2026-05-05 10:27 38.18397 13.10506 57 ft 11 kts 20°
2026-05-05 10:27 38.18453 13.10552 61 ft 9 kts 62°
2026-05-05 10:27 38.18495 13.10578 59 ft 7 kts 341°
2026-05-05 10:27 38.18528 13.10559 62 ft 0 kts 336°